{"data":{"norad_id":52084,"intl_designator":"2022-027A","name":"YAOGAN-34 02","alt_names":[],"object_type":"PAYLOAD","status":"ACTIVE","operator":null,"country":"PRC","launch_date":"2022-03-17","launch_site_code":"JSC","launch_vehicle":null,"mission":null,"orbit_class":"UNKNOWN","rcs_meters":null,"size_class":null,"mass_kg":null,"dimensions":null,"purposes":[],"wikipedia_slug":null,"has_3d_model":false,"image_url":null,"decayed_at":null,"tle_current":{"epoch":"2026-05-25T04:57:24.432192Z","epoch_age_seconds":53593,"freshness":"FRESH","line1":"1 52084U 22027A   26145.20653278 -.00000077  00000+0  22742-4 0  9998","line2":"2 52084  63.3977 260.1463 0049959 353.2307   6.8039 13.45459092205822","mean_motion":13.45459092,"eccentricity":0.0049959,"inclination_deg":63.3977,"raan_deg":260.1463,"arg_perigee_deg":353.2307,"mean_anomaly_deg":6.8039,"bstar":2.2742e-5,"rev_number":20582,"period_min":107.02666536368,"perigee_km":1051.7073054469,"apogee_km":1126.3175691947,"semimajor_km":7467.1494373208,"source":"CELESTRAK","updated_at":"2026-05-25T13:37:57.605193Z"}}}